Terminal Aerodrome Forecast
Issued by NWS La Crosse, WI

Home | Current Version | Previous Version | Text Only | Print | Product List | Glossary On
Versions: 1 2 3 4 5 6 7 8 9 10 11 12 13 14 15 16 17 18 19 20 21 22 23 24 25 26 27 28 29 30 31 32 33 34 35 36
000
FTUS43 KARX 251507 AAB
TAFLSE
TAF AMD
KLSE 251507Z 2515/2612 22010KT P6SM -RA BKN015
      TEMPO 2515/2517 BKN025
     FM251700 22015G23KT P6SM BKN025
     FM260000 19012KT P6SM VCSH BKN035
     FM260600 19006KT 4SM BR OVC015=

USA.gov is the U.S. government's official web portal to all federal, state and local government web resources and services.